Location: Krasnoyarskiy Pitomnik
(51.1333°N, 71.6167°E)
Time: 09:29:04
(UTC+00:00)

Altair - Pass Details

Date: 18 April 2024
Orbit: 1501 x 1682 km, 47.2° (Epoch: 17 May)

Event Time Altitude Azimuth Distance (km) Brightness Sun altitude
Rises 14:21:31 0° 219° (SW) 4,912 10.4 -1.8°
Reaches altitude 10° 14:24:54 10° 213° (SSW) 3,913 9.8 -2.3°
Maximum altitude 14:34:03 42° 147° (SSE) 2,187 8.0 -3.6°
Drops below altitude 10° 14:42:56 10° 81° (E) 3,807 9.1 -4.9°
Sets 14:46:10 0° 74° (ENE) 4,768 9.6 -5.4°
